Regional Weather Roundup
Issued by NWS Cleveland, OH

Home | Current Version | Previous Version | Text Only | Print | Product List | Glossary Off
Versions: 1 2 3 4 5 6 7 8 9 10 11 12 13 14 15 16 17 18 19 20 21 22 23 24 25 26 27 28 29 30 31 32 33 34 35 36 37 38 39 40 41 42 43 44 45 46 47 48 49 50

000
ASUS41 KCLE 231902
RWRCLE
OHIO REGIONAL WEATHER ROUNDUP
NATIONAL WEATHER SERVICE CLEVELAND, OH
300 PM EDT WED MAY 23 2018

NOTE: "FAIR" INDICATES FEW OR NO CLOUDS BELOW 12,000 FEET WITH NO
SIGNIFICANT WEATHER AND/OR OBSTRUCTIONS TO VISIBILITY.

OHZ001>008-015>018-024>027-034-035-043-044-232000-
   NORTHWEST OHIO

CITY           SKY/WX    TMP DP  RH WIND       PRES   REMARKS
DEFIANCE       FAIR      76  54  46 E6        30.19S
FINDLAY        FAIR      77  52  41 N7        30.18S
TOLEDO EXPRESS FAIR      79  52  38 N6        30.17S
TOLEDO EXEC    FAIR      76  48  37 E5        30.19R
LIMA           FAIR      75  56  51 NE8       30.19S
$$

OHZ009>014-019>023-028>033-038-089-232000-
   NORTHEAST OHIO

CITY           SKY/WX    TMP DP  RH WIND       PRES   REMARKS
CLE-HOPKINS    PTSUNNY   73  51  46 N6        30.19F
CLE-LAKEFRONT  FAIR      61  55  81 NW7       30.17F
CUY CO. ARPT   MOSUNNY   70  54  56 NW8       30.18F
LORAIN-ELYRIA  FAIR      71  44  37 NE9       30.18F
ASHTABULA      FAIR      70  52  52 NW3       30.16F
AKRON-CANTON   FAIR      73  55  53 N6        30.17F
WOOSTER        FAIR      72  55  55 VRB7      30.18F
MANSFIELD      FAIR      72  52  49 N9        30.19S
YOUNGSTOWN     FAIR      71  51  49 NW8       30.16F
$$

OHZ042-051>053-060>062-070>072-077>081-232000-
  SOUTHWEST OHIO

CITY           SKY/WX    TMP DP  RH WIND       PRES   REMARKS
CINC-COVINGTON FAIR      79  56  45 CALM      30.14F
CINC-LUNKEN    FAIR      78  60  53 NE5       30.14F
HAMILTON       FAIR      79  60  52 N8        30.16F
DAYTON         FAIR      76  56  49 NE10      30.18F
WRIGHT-PAT AFB FAIR      76  56  48 N9        30.16F
DAYTON GENERAL FAIR      79  55  43 MISG      30.15F
WILMINGTON     FAIR      74  60  61 N10       30.16F
$$

OHZ036-037-039>041-045>050-054>059-063>069-073>076-082>088-232000-
  CENTRAL AND SOUTHEAST OHIO

CITY           SKY/WX    TMP DP  RH WIND       PRES   REMARKS
COLUMBUS       FAIR      75  57  53 N7        30.17R
OSU AIRPORT    FAIR      75  58  55 NE7       30.16F
BOLTON FIELD   SUNNY     73  63  68 NE6       30.17F
RICKENBACK AFB PTSUNNY   73  58  59 MISG      30.16F
NEWARK         FAIR      73  56  54 NE3       30.17S
MARION         FAIR      74  54  49 NE6       30.19S
LANCASTER      PTSUNNY   72  59  63 NE8       30.18S
ZANESVILLE     PTSUNNY   71  56  58 NE7       30.18S
NEW PHILLY     NOT AVBL
$$




USA.gov is the U.S. government's official web portal to all federal, state and local government web resources and services.